Data for 06/19/2017

Time Sea-Level Adjusted Pressure Absolute Pressure Temperature Relative Humidity Dew Point   
(mb) (inHg) (mb) (inHg) (C) (F) (%) (C) (F)
00:05 1025 30.27 854 25.22 13.8 56.8 60 6.2 43.1
00:10 1025 30.27 854 25.22 13.7 56.7 60 6.1 43.1
00:15 1025 30.27 854 25.22 13.6 56.6 61 6.3 43.3
00:20 1025 30.27 854 25.22 13.6 56.4 61 6.3 43.4
00:25 1025 30.27 854 25.22 13.5 56.2 62 6.4 43.5
00:30 1025 30.27 854 25.22 13.4 56 62 6.3 43.3
00:35 1025 30.27 854 25.22 13.3 55.9 63 6.4 43.5
00:40 1025 30.27 854 25.22 13.4 56.1 62 6.3 43.3
00:45 1025 30.27 854 25.22 13.4 56.1 62 6.4 43.5
00:50 1025 30.27 854 25.22 13.3 55.9 63 6.4 43.5
00:55 1025 30.27 854 25.22 13.2 55.7 63 6.3 43.3
01:00 1025 30.27 854 25.22 13 55.4 64 6.4 43.5
01:05 1025 30.27 854 25.22 12.7 54.8 65 6.3 43.3
01:10 1025 30.27 854 25.22 12.6 54.6 65 6.2 43.1
01:15 1025 30.27 854 25.22 12.5 54.4 65 6.1 43.1
01:20 1025 30.27 854 25.22 12.4 54.3 65 5.9 42.7
01:25 1025 30.27 854 25.22 12.5 54.5 64 5.9 42.7
01:30 1024 30.24 854 25.22 12.4 54.4 65 6.2 43.1
01:35 1024 30.24 854 25.22 12.2 53.9 67 6.3 43.4
01:40 1024 30.24 854 25.22 11.6 52.9 70 6.3 43.3
01:45 1024 30.24 854 25.22 11.4 52.6 69 6 42.9
01:50 1024 30.24 854 25.22 11.6 52.8 68 5.9 42.7
01:55 1024 30.24 854 25.22 11.7 53 69 6.1 43
02:00 1024 30.24 854 25.22 11.4 52.5 70 6.1 43
02:05 1024 30.24 854 25.22 11.3 52.4 69 5.8 42.5
02:10 1024 30.24 854 25.22 11.4 52.6 69 6 42.9
02:15 1025 30.27 854 25.22 11.2 52.2 70 6 42.9
02:20 1024 30.24 854 25.22 11.2 52.2 70 5.9 42.6
02:25 1025 30.27 854 25.22 11.2 52.2 70 6.1 42.9
02:30 1025 30.27 854 25.22 11.2 52.1 70 6 42.8
02:35 1025 30.27 854 25.22 11.1 51.9 71 6 42.8
02:40 1025 30.27 854 25.22 11 51.8 71 6 42.7
02:45 1025 30.27 854 25.22 11 51.8 71 6 42.8
02:50 1025 30.27 854 25.22 11 51.9 70 5.9 42.6
02:55 1025 30.27 854 25.22 11 51.9 71 6.1 43
03:00 1025 30.27 854 25.22 10.7 51.2 74 6.2 43.1
03:05 1025 30.27 854 25.22 10.3 50.5 75 6 42.8
03:10 1025 30.27 854 25.22 10.2 50.4 74 5.8 42.5
03:15 1025 30.27 854 25.22 10.3 50.5 75 6 42.8
03:20 1025 30.27 854 25.22 9.7 49.5 77 5.9 42.7
03:25 1025 30.27 854 25.22 9.6 49.2 77 5.7 42.3
03:30 1025 30.27 854 25.22 9.8 49.7 74 5.5 41.9
03:35 1025 30.27 854 25.22 10.3 50.5 73 5.6 42
03:40 1025 30.27 854 25.22 10.6 51 70 5.4 41.8
03:45 1025 30.27 854 25.22 10.4 50.7 72 5.6 42.1
03:50 1025 30.27 854 25.22 10.3 50.5 71 5.4 41.7
03:55 1025 30.27 854 25.22 10.3 50.6 70 5.2 41.3
04:00 1025 30.27 854 25.22 10.5 50.9 70 5.3 41.6
04:05 1025 30.27 854 25.22 10.5 50.8 70 5.3 41.5
04:10 1025 30.27 854 25.22 10.6 51 70 5.3 41.5
04:15 1025 30.27 854 25.22 10.5 50.8 70 5.2 41.4
04:20 1025 30.27 854 25.22 10.2 50.3 71 5.2 41.3
04:25 1025 30.27 854 25.22 9.8 49.6 73 5.2 41.4
04:30 1025 30.27 854 25.22 9.7 49.4 72 4.9 40.8
04:35 1025 30.27 854 25.22 9.9 49.9 70 4.8 40.6
04:40 1025 30.27 854 25.22 10.1 50.2 70 4.9 40.9
04:45 1025 30.27 854 25.22 10.1 50.2 70 5 40.9
04:50 1025 30.27 854 25.22 9.8 49.6 73 5.2 41.4
04:55 1025 30.27 854 25.22 9.4 48.9 73 4.8 40.6
05:00 1025 30.27 854 25.22 9.7 49.4 72 4.9 40.8
05:05 1025 30.27 854 25.22 9.6 49.3 72 4.9 40.8
05:10 1025 30.27 854 25.22 9.5 49 74 5.1 41.1
05:15 1025 30.27 854 25.22 9.3 48.7 73 4.8 40.6
05:20 1025 30.27 854 25.22 9.5 49 72 4.7 40.5
05:25 1025 30.27 854 25.22 9.5 49.1 72 4.6 40.3
05:30 1025 30.27 854 25.22 9.3 48.8 74 4.9 40.8
05:35 1025 30.27 854 25.22 9.2 48.5 73 4.7 40.4
05:40 1025 30.27 854 25.22 9.3 48.8 73 4.8 40.7
05:45 1025 30.27 854 25.22 9.1 48.4 72 4.4 40
05:50 1025 30.27 854 25.22 9.4 48.9 73 4.8 40.6
05:55 1025 30.27 854 25.22 9.6 49.3 70 4.5 40.2
06:00 1025 30.27 854 25.22 9.9 49.8 69 4.6 40.3
06:05 1025 30.27 854 25.22 10 50 69 4.6 40.3
06:10 1025 30.27 854 25.22 10.1 50.1 69 4.6 40.3
06:15 1025 30.27 854 25.22 10 49.9 69 4.5 40.2
06:20 1025 30.27 854 25.22 10 49.9 70 4.7 40.5
06:25 1025 30.27 854 25.22 9.6 49.2 71 4.6 40.3
06:30 1025 30.27 854 25.22 9.7 49.4 70 4.5 40
06:35 1025 30.27 854 25.22 9.8 49.6 70 4.6 40.2
06:40 1025 30.27 855 25.25 10.1 50.1 68 4.6 40.2
06:45 1025 30.27 855 25.25 10.2 50.4 68 4.7 40.4
06:50 1025 30.27 855 25.25 10.3 50.5 68 4.6 40.3
06:55 1025 30.27 855 25.25 10.6 51.1 66 4.7 40.4
07:00 1025 30.27 855 25.25 10.8 51.5 66 4.8 40.7
07:05 1025 30.27 855 25.25 11.2 52.2 66 5 41.1
07:10 1025 30.27 855 25.25 11.4 52.5 65 5.1 41.2
07:15 1025 30.27 855 25.25 11.6 52.9 66 5.5 41.9
07:20 1025 30.27 855 25.25 11.8 53.2 66 5.6 42.1
07:25 1025 30.27 855 25.25 12 53.6 64 5.5 42
07:30 1025 30.27 855 25.25 12.4 54.2 63 5.5 41.9
07:35 1025 30.27 854 25.22 12.7 54.9 62 5.7 42.3
07:40 1025 30.27 855 25.25 13.1 55.5 63 6.3 43.3
07:45 1025 30.27 855 25.25 13.4 56.1 63 6.5 43.6
07:50 1025 30.27 855 25.25 13.1 55.5 64 6.5 43.7
07:55 1025 30.27 855 25.25 13.5 56.3 62 6.4 43.6
08:00 1025 30.27 855 25.25 13.7 56.7 62 6.7 44
08:05 1025 30.27 855 25.25 14.1 57.4 62 6.9 44.5
08:10 1026 30.3 855 25.25 14.3 57.8 61 6.9 44.5
08:15 1026 30.3 855 25.25 14.8 58.6 56 6.3 43.3
08:20 1026 30.3 855 25.25 15.6 60.1 55 6.8 44.2
08:25 1026 30.3 855 25.25 16.2 61.1 51 6.2 43.2
08:30 1026 30.3 855 25.25 17 62.6 48 6 42.9
08:35 1026 30.3 855 25.25 16.9 62.5 48 6 42.9
08:40 1026 30.3 855 25.25 16.7 62.1 46 5.2 41.3
08:45 1026 30.3 855 25.25 16.9 62.5 47 5.7 42.3
08:50 1026 30.3 855 25.25 16.7 62.1 46 5.2 41.4
08:55 1026 30.3 855 25.25 17.4 63.3 44 5 41
09:00 1026 30.3 855 25.25 17 62.6 47 5.7 42.3
09:05 1026 30.3 855 25.25 17.4 63.3 48 6.4 43.5
09:10 1026 30.3 855 25.25 17.4 63.2 47 6.1 43
09:15 1026 30.3 855 25.25 17.6 63.7 48 6.5 43.7
09:20 1026 30.3 855 25.25 17.8 64 46 6 42.8
09:25 1026 30.3 855 25.25 18.1 64.6 43 5.5 42
09:30 1026 30.3 855 25.25 18.4 65 43 5.8 42.5
09:35 1026 30.3 855 25.25 18.2 64.7 42 5.2 41.3
09:40 1026 30.3 855 25.25 18.7 65.6 40 5.1 41.1
09:45 1026 30.3 855 25.25 18.8 65.8 41 5.4 41.7
09:50 1026 30.3 855 25.25 17.9 64.2 41 4.4 39.9
09:55 1025 30.27 855 25.25 17.8 64.1 41 4.5 40.1
10:00 1025 30.27 855 25.25 18.7 65.6 38 4.2 39.6
10:05 1025 30.27 855 25.25 19.4 66.9 37 4.3 39.8
10:10 1025 30.27 855 25.25 19.5 67 36 4.3 39.8
10:15 1025 30.27 855 25.25 19.5 67 38 5 41
10:20 1025 30.27 855 25.25 18.3 65 39 4.4 39.9
10:25 1025 30.27 855 25.25 18.9 66 38 4.5 40.1
10:30 1025 30.27 854 25.22 18.4 65.1 40 4.7 40.4
10:35 1025 30.27 854 25.22 19.3 66.8 39 5.2 41.3
10:40 1025 30.27 854 25.22 20.1 68.1 35 4.2 39.5
10:45 1025 30.27 854 25.22 19.7 67.4 36 4.2 39.5
10:50 1025 30.27 854 25.22 19.5 67.1 37 4.6 40.2
10:55 1025 30.27 854 25.22 19.8 67.6 37 4.7 40.5
11:00 1025 30.27 854 25.22 20.3 68.5 36 4.8 40.6
11:05 1025 30.27 854 25.22 19.5 67.1 37 4.5 40.1
11:10 1025 30.27 854 25.22 19.8 67.6 35 4.1 39.3
11:15 1025 30.27 854 25.22 21.1 69.9 31 3.6 38.5
11:20 1025 30.27 854 25.22 21.5 70.7 32 4.5 40
11:25 1025 30.27 854 25.22 21.8 71.2 31 4.3 39.7
11:30 1025 30.27 854 25.22 21.5 70.6 30 3.4 38.2
11:35 1025 30.27 854 25.22 21.5 70.7 31 3.7 38.7
11:40 1025 30.27 854 25.22 20.9 69.6 32 3.9 39.1
11:45 1025 30.27 854 25.22 20.7 69.3 31 3.3 37.9
11:50 1025 30.27 854 25.22 20.9 69.7 32 4 39.2
11:55 1025 30.27 854 25.22 21.5 70.6 30 3.2 37.8
12:00 1024 30.24 854 25.22 22.1 71.8 30 3.9 39
12:05 1024 30.24 854 25.22 21.8 71.2 29 3.3 38
12:10 1024 30.24 854 25.22 22 71.6 29 3.3 38
12:15 1024 30.24 854 25.22 21.5 70.7 30 3.5 38.3
12:20 1024 30.24 854 25.22 22 71.5 29 3.5 38.3
12:25 1024 30.24 853 25.19 21.6 70.8 29 3.1 37.6
12:30 1024 30.24 853 25.19 22.4 72.3 28 3.1 37.5
12:35 1024 30.24 853 25.19 22.9 73.1 27 3.3 38
12:40 1024 30.24 853 25.19 22.8 73.1 31 5 40.9
12:45 1024 30.24 853 25.19 21.9 71.4 30 3.9 39
12:50 1024 30.24 853 25.19 22.5 72.6 30 4.3 39.7
12:55 1024 30.24 853 25.19 22.5 72.5 29 3.8 38.8
13:00 1024 30.24 853 25.19 22.2 72 31 4.4 39.9
13:05 1024 30.24 853 25.19 22.6 72.7 29 3.9 39
13:10 1024 30.24 853 25.19 23.3 73.9 29 4.7 40.4
13:15 1024 30.24 853 25.19 21.6 70.9 30 3.7 38.6
13:20 1024 30.24 853 25.19 22.3 72.1 29 3.6 38.5
13:25 1024 30.24 853 25.19 22.4 72.2 31 4.4 39.9
13:30 1024 30.24 853 25.19 21.6 70.9 31 4.1 39.3
13:35 1024 30.24 853 25.19 22.2 71.9 29 3.7 38.7
13:40 1023 30.21 853 25.19 22.5 72.5 30 4.5 40
13:45 1023 30.21 853 25.19 23.7 74.7 29 4.7 40.5
13:50 1023 30.21 852 25.16 23.9 75.1 28 4.3 39.7
13:55 1023 30.21 852 25.16 24.5 76.2 27 4.6 40.3
14:00 1023 30.21 852 25.16 24.9 76.7 27 4.8 40.6
14:05 1023 30.21 852 25.16 24.6 76.4 28 5 41.1
14:10 1023 30.21 852 25.16 23.2 73.8 29 4.6 40.3
14:15 1023 30.21 852 25.16 22.6 72.7 31 4.8 40.7
14:20 1023 30.21 852 25.16 23 73.3 29 4.4 39.9
14:25 1023 30.21 852 25.16 23.8 74.8 29 5.1 41.2
14:30 1023 30.21 852 25.16 23.9 74.9 30 5.5 41.9
14:35 1023 30.21 852 25.16 24.5 76 27 4.3 39.8
14:40 1023 30.21 852 25.16 24.5 76 28 5.1 41.1
14:45 1023 30.21 852 25.16 24.5 76.1 28 4.9 40.9
14:50 1023 30.21 852 25.16 24.8 76.6 29 5.6 42.1
14:55 1023 30.21 852 25.16 24 75.3 29 5.3 41.5
15:00 1023 30.21 852 25.16 23.8 74.8 29 5 40.9
15:05 1023 30.21 852 25.16 24.9 76.8 28 5.2 41.3
15:10 1023 30.21 852 25.16 25.7 78.2 26 5 40.9
15:15 1023 30.21 852 25.16 25.7 78.2 27 5.3 41.5
15:20 1023 30.21 852 25.16 24.9 76.8 28 5.6 42
15:25 1023 30.21 852 25.16 25.4 77.7 26 4.7 40.5
15:30 1022 30.18 852 25.16 25.6 78.1 27 5.6 42.1
15:35 1022 30.18 852 25.16 24.2 75.6 27 4.4 39.9
15:40 1022 30.18 852 25.16 24.9 76.9 26 4.3 39.7
15:45 1022 30.18 852 25.16 25.5 77.9 25 4.3 39.7
15:50 1022 30.18 851 25.13 26.2 79.2 24 4.2 39.6
15:55 1022 30.18 851 25.13 26 78.7 25 4.8 40.6
16:00 1022 30.18 851 25.13 26 78.8 24 4.4 39.9
16:05 1022 30.18 851 25.13 25.7 78.2 24 4.1 39.3
16:10 1022 30.18 851 25.13 26.1 79 23 3.8 38.9
16:15 1022 30.18 851 25.13 27.2 80.9 21 3.1 37.6
16:20 1022 30.18 851 25.13 27.4 81.4 21 3.7 38.6
16:25 1022 30.18 851 25.13 27.3 81.2 21 3.3 38
16:30 1022 30.18 851 25.13 27.7 81.8 21 3.6 38.5
16:35 1022 30.18 851 25.13 28 82.4 21 3.6 38.6
16:40 1022 30.18 851 25.13 27.7 81.8 21 4 39.2
16:45 1022 30.18 851 25.13 27.1 80.8 21 3.5 38.3
16:50 1022 30.18 851 25.13 27.3 81.1 22 3.7 38.7
16:55 1022 30.18 851 25.13 27.2 80.9 22 4.2 39.6
17:00 1022 30.18 851 25.13 27.8 82 21 3.7 38.6
17:05 1022 30.18 851 25.13 27.5 81.5 20 3.2 37.7
17:10 1021 30.15 851 25.13 27.8 82.1 20 3.3 38
17:15 1021 30.15 851 25.13 28 82.4 20 3.5 38.3
17:20 1021 30.15 850 25.1 28 82.3 21 3.9 39
17:25 1021 30.15 850 25.1 27.5 81.4 22 4.1 39.3
17:30 1021 30.15 850 25.1 27.5 81.5 21 3.8 38.8
17:35 1021 30.15 850 25.1 27.9 82.3 20 3.1 37.6
17:40 1021 30.15 850 25.1 28.4 83.2 20 3.7 38.7
17:45 1021 30.15 850 25.1 27.2 80.9 22 4.2 39.6
17:50 1021 30.15 850 25.1 27.2 80.9 21 3.4 38.2
17:55 1021 30.15 850 25.1 27.4 81.3 22 4 39.2
18:00 1021 30.15 850 25.1 26.6 80 22 3.6 38.5
18:05 1021 30.15 850 25.1 26.6 80 22 3.3 37.9
18:10 1021 30.15 850 25.1 26.6 79.8 22 3.4 38.1
18:15 1021 30.15 850 25.1 26.8 80.3 22 3.6 38.5
18:20 1021 30.15 850 25.1 26.8 80.2 23 3.9 39
18:25 1021 30.15 850 25.1 27.3 81.1 21 3.4 38.2
18:30 1021 30.15 850 25.1 27.9 82.1 20 3.2 37.8
18:35 1021 30.15 850 25.1 28.3 82.9 20 3.6 38.5
18:40 1020 30.12 850 25.1 28 82.5 20 3.6 38.4
18:45 1020 30.12 850 25.1 27.1 80.7 22 3.8 38.8
18:50 1020 30.12 850 25.1 27.2 81 22 3.9 39
18:55 1020 30.12 849 25.07 27 80.7 21 3 37.4
19:00 1020 30.12 849 25.07 27 80.6 21 3.4 38
19:05 1020 30.12 849 25.07 26.9 80.4 22 3.5 38.4
19:10 1020 30.12 849 25.07 26.8 80.2 22 3.4 38.2
19:15 1020 30.12 849 25.07 26.9 80.4 21 2.9 37.3
19:20 1020 30.12 849 25.07 27.5 81.4 21 3.5 38.3
19:25 1020 30.12 849 25.07 27.2 81 23 4.5 40
19:30 1020 30.12 849 25.07 26.9 80.5 23 4.5 40
19:35 1020 30.12 849 25.07 26.5 79.6 23 4.1 39.3
19:40 1020 30.12 849 25.07 26 78.8 25 4.6 40.3
19:45 1020 30.12 849 25.07 25.9 78.5 25 4.3 39.8
19:50 1020 30.12 849 25.07 25.7 78.3 27 5.4 41.7
19:55 1020 30.12 849 25.07 25.5 78 28 5.7 42.3
20:00 1020 30.12 849 25.07 25.5 77.9 28 6 42.7
20:05 1020 30.12 849 25.07 25.4 77.7 26 4.9 40.7
20:10 1020 30.12 849 25.07 25.3 77.5 28 5.8 42.4
20:15 1020 30.12 849 25.07 25.2 77.4 28 5.8 42.4
20:20 1020 30.12 849 25.07 25.2 77.3 29 6 42.8
20:25 1020 30.12 849 25.07 24.9 76.9 31 6.8 44.2
20:30 1020 30.12 849 25.07 24.5 76.1 32 7.1 44.8
20:35 1020 30.12 849 25.07 24.2 75.6 32 6.9 44.3
20:40 1020 30.12 849 25.07 24.1 75.3 32 6.5 43.8
20:45 1020 30.12 849 25.07 24 75.1 32 6.5 43.6
20:50 1020 30.12 849 25.07 23.8 74.9 32 6.4 43.6
20:55 1020 30.12 849 25.07 23.5 74.3 33 6.3 43.4
21:00 1020 30.12 849 25.07 23.3 73.9 35 7.1 44.8
21:05 1020 30.12 849 25.07 22.9 73.2 36 7.3 45.2
21:10 1020 30.12 849 25.07 22.6 72.7 34 6.3 43.4
21:15 1020 30.12 849 25.07 22.6 72.6 33 5.9 42.5
21:20 1020 30.12 849 25.07 22.3 72.2 42 9.1 48.4
21:25 1020 30.12 849 25.07 21.7 71.1 44 9.2 48.5
21:30 1020 30.12 850 25.1 21 69.8 48 9.7 49.4
21:35 1020 30.12 850 25.1 20.4 68.8 41 6.7 44.1
21:40 1020 30.12 850 25.1 20.5 68.9 42 7.2 44.9
21:45 1021 30.15 850 25.1 20.2 68.4 42 7 44.5
21:50 1021 30.15 850 25.1 20.1 68.2 41 6.7 44.1
21:55 1021 30.15 850 25.1 20.1 68.2 41 6.6 43.9
22:00 1021 30.15 850 25.1 20 68 40 6.3 43.3
22:05 1021 30.15 850 25.1 20 67.9 42 6.7 44.1
22:10 1021 30.15 850 25.1 19.4 67 42 6.3 43.4
22:15 1021 30.15 850 25.1 19.2 66.6 42 6.3 43.3
22:20 1021 30.15 850 25.1 19 66.2 43 6.2 43.2
22:25 1021 30.15 850 25.1 18.8 65.8 43 6.1 43
22:30 1021 30.15 850 25.1 18.6 65.4 45 6.6 43.9
22:35 1021 30.15 850 25.1 18.2 64.8 46 6.4 43.5
22:40 1021 30.15 850 25.1 18.2 64.8 44 5.9 42.7
22:45 1021 30.15 850 25.1 18.1 64.6 44 5.7 42.3
22:50 1021 30.15 850 25.1 18.1 64.5 45 6.2 43.2
22:55 1021 30.15 850 25.1 18.1 64.5 43 5.3 41.6
23:00 1021 30.15 850 25.1 18.9 66 39 4.8 40.7
23:05 1021 30.15 850 25.1 19.3 66.7 39 5.2 41.3
23:10 1021 30.15 850 25.1 19.1 66.4 39 4.9 40.9
23:15 1021 30.15 850 25.1 19.1 66.3 39 5 41
23:20 1021 30.15 850 25.1 19.2 66.5 38 4.5 40.1
23:25 1021 30.15 850 25.1 19.3 66.8 39 5 41
23:30 1021 30.15 850 25.1 18.5 65.3 44 6 42.8
23:35 1021 30.15 850 25.1 17.7 63.8 44 5.3 41.5
23:40 1021 30.15 850 25.1 17.8 64 43 5.3 41.5
23:45 1021 30.15 850 25.1 18.1 64.5 42 5 41.1
23:50 1021 30.15 850 25.1 18.4 65.2 41 5.2 41.3
23:55 1021 30.15 850 25.1 18.1 64.6 45 6 42.8
24:00 1021 30.15 850 25.1 17.8 64.1 43 5.1 41.3